www.pogodaiklimat.ru
ПОГОДА в Элбоу Лейк
Время
и дата
19:55 26.10
20:15 26.10
20:35 26.10
20:55 26.10
21:15 26.10
21:35 26.10
21:55 26.10
22:15 26.10
22:35 26.10
22:55 26.10
23:15 26.10
23:35 26.10
23:55 26.10
00:15 27.10
00:35 27.10
00:55 27.10
01:15 27.10
01:35 27.10
01:55 27.10
02:15 27.10
02:35 27.10
02:55 27.10
03:15 27.10
03:35 27.10
03:55 27.10
04:15 27.10
04:35 27.10
04:55 27.10
05:15 27.10
05:35 27.10
05:55 27.10
06:15 27.10
06:35 27.10
06:55 27.10
07:15 27.10
07:35 27.10
07:55 27.10
08:15 27.10
08:35 27.10
08:55 27.10
09:15 27.10
09:35 27.10
09:55 27.10
10:15 27.10
10:35 27.10
10:55 27.10
11:15 27.10
11:35 27.10
Ветер
(напр.,м/с)
Видим. Явления Облачность Т
(С)
Тd
(С)
f
(%)
Тe
(С)
Тes
(С)
Комфортность P
(гПа)
Po
(гПа)
Тmin
(С)
Tmax
(С)
R
(мм)
R24
(мм)
S
(см)
Ю 1 16 км ясно -13.0 -13.6 95 -19 -19 982.8
ЮЗ 1 16 км ясно -13.7 -14.6 93 -20 -20 982.8
З 1 16 км ясно -13.6 -14.3 94 -20 -20 982.5
З 1 16 км ясно -13.0 -13.8 94 -19 -19 982.5
З 1 16 км ясно -13.2 -14.1 93 -19 -19 982.8
З 1 16 км ясно -12.7 -13.5 94 -19 -19 982.5
З 2 16 км ясно -14.2 -15.2 92 -22 -22 982.5
Ю 2 16 км ясно -13.6 -14.5 93 -21 -21 982.2
Ю 2 16 км ясно -15.6 -16.7 91 -24 -24 982.2
Ю 2 16 км ясно -15.5 -16.6 91 -24 -24 981.9
Ю 2 16 км ясно -13.5 -14.6 91 -21 -21 981.5
Ю 2 16 км ясно -13.7 -14.9 91 -21 -21 981.5
Ю 2 16 км ясно -15.0 -16.2 91 -23 -23 981.2 -15.8 -10.0
Ю 2 16 км ясно -15.6 -16.9 90 -25 -25 980.9
Ю 2 16 км ясно -14.5 -15.8 90 -23 -23 980.9
Ю 2 16 км ясно -13.5 -14.5 92 -21 -21 980.9
Ю 2 16 км ясно -13.5 -14.7 91 -22 -22 980.9
Ю 2 16 км ясно -13.6 -14.8 91 -21 -21 980.9
Ю 2 16 км ясно -14.5 -15.7 91 -23 -23 980.6
Ю 2 16 км ясно -13.7 -15.0 90 -22 -22 980.2
Ю 2 16 км ясно -13.5 -14.7 91 -22 -22 979.9
Ю 3 16 км ясно -13.0 -14.0 92 -22 -22 979.6
Ю 3 16 км ясно -13.0 -14.2 91 -22 -22 979.6
Ю 3 16 км ясно -13.0 -14.0 92 -22 -22 979.3
Ю 3 16 км ясно -12.8 -14.0 91 -22 -22 979.3
Ю 3 16 км ясно -12.6 -13.9 90 -22 -22 978.6
Ю 3 16 км ясно -13.0 -14.4 89 -22 -22 978.6
Ю 3 16 км ясно -12.8 -14.3 88 -22 -22 978.3
Ю 3 16 км ясно -12.8 -14.3 88 -22 -22 978.3
Ю 3 16 км ясно -12.5 -14.0 89 -21 -21 978.0
Ю 3 16 км ясно -12.5 -14.2 87 -22 -22 977.7 -15.7 -12.5
Ю 3 16 км ясно -12.6 -14.2 88 -22 -22 977.3
Ю 3 16 км ясно -12.4 -14.0 88 -22 -22 977.0
Ю 4 16 км ясно -12.5 -14.2 87 -23 -23 976.7
Ю 3 16 км ясно -12.5 -14.0 89 -22 -22 976.4
Ю 3 16 км ясно -12.1 -14.0 86 -22 -22 976.4
Ю 3 16 км ясно -11.7 -13.6 86 -21 -21 976.4
Ю 3 16 км ясно -11.5 -13.5 85 -20 -20 976.7
Ю 3 16 км ясно -11.0 -13.3 83 -20 -20 976.0
Ю 3 16 км ясно -10.8 -13.2 82 -19 -19 976.0
Ю 3 16 км ясно -10.0 -12.7 81 -19 -18 975.7
Ю 3 16 км ясно -9.7 -12.5 80 -18 -18 975.7
Ю 3 16 км ясно -9.1 -12.0 79 -18 -18 975.1
Ю 3 16 км ясно -8.5 -11.6 78 -17 -16 974.7
Ю 3 16 км ясно -8.0 -11.3 77 -16 -15 974.7
Ю 3 16 км ясно -7.1 -10.6 76 -15 -14 974.7
Ю 3 16 км ясно -6.1 -10.2 73 -14 -13 974.4
Ю 3 16 км ясно -6.1 -10.0 74 -14 -13 974.4
Местоположение метеостанции Elbow Lake Municipal Airport: широта 45.9884 долгота -95.9935 высота над уровнем моря 366 м.
В архиве по умолчанию представлена погода в Элбоу Лейк за последние 1-2 суток. Обновление информации о фактической погоде в базе происходит ежечасно! Архивные данные за месяц целиком и за предыдущие месяцы Вы можете получить, выбрав интересующий диапазон дат из раскрывающегося списка и нажав кнопку "Ввод!".
Внимание! Архив погоды МЕТАР в базе сайта по станциям, не включенным в климатический монитор, хранится не более 60 дней. Нет смысла пытаться выбрать более раннюю дату.
*Определитесь, кто Вы:
Внимание! Время в таблицах - местное (без учета летнего времени). Для получения всемирного времени необходимо вычесть поправку, которая равна -6 ч.
Смотрите также архив погоды в соседних городах и на ближайших метеорологических станциях:
Партнеры нашего сайта:      
Пояснения к столбцам:
  • Ветер - указаны скорость ветра в м/с - средняя за 10 мин, порывы в срок и между сроками (в фигурных скобках) и направление, откуда дует ветер: С - северный,
  • СВ - северо-восточный, В - восточный, ЮВ - юго-восточный, Ю - южный, ЮЗ - юго-западный, З - западный, СЗ - северо-западный.
  • Видимость - горизонтальная дальность видимости в метрах или километрах. При видимости от 1 до 10 км при отсутствии осадков обычно наблюдается дымка, при ухудшении видимости до 1 км и менее - туман. В сухую погоду видимость может ухудшаться дымом, пылью или мглою.
  • Явления - указаны атмосферные явления, наблюдавшиеся в срок или в последний час перед сроком; фигурными скобками обозначены явления, наблюдавшиеся между сроками (за 1-3 часа до срока); квадратными скобками обозначены град или гололедные отложения с указанием их диаметра в мм.
  • Облачность - указаны через наклонную черту общая и нижняя облачность в баллах и высота нижней границы облаков в метрах; квадратными скобками обозначены формы облаков: Ci - перистые, Cs - перисто-слоистые, Cc - перисто-кучевые, Ac - высококучевые, As - высокослоистые, Sc - слоисто-кучевые, Ns - слоисто-дождевые, Cu - кучевые, Cb - кучево-дождевые. Подробнее классификацию облаков см. в Атласе облаков (PDF).
  • T - Температура воздуха - температура, измеренная на высоте 2 м над землей.
  • Td - Температура точки росы - температура, при понижении до которой содержащийся в воздухе водяной пар достигнет насыщения.
  • f - Относительная влажность воздуха - влажноcть воздуха, измеренная на высоте 2 м над землей.
  • Te - Эффективная температура - температура, которую ощущает одетый по сезону человек в тени. Характеристика душности погоды. При расчете учитывается влияние влажности воздуха и скорости ветра на теплоощущения человека.
  • Tes - Эффективная температура на солнце - температура, которую ощущает человек, с поправкой на солнечный нагрев. Характеристика знойности погоды. Зависит от высоты солнца над горизонтом, облачности и скорости ветра. Ночью, в пасмурную погоду, а также при ветре 12 м/с и более поправка равна нулю.
  • P - Атмосферное давление - приведенное к уровню моря атмосферное давление.
  • Po - Атмосферное давление - измеренное на уровне метеостанции атмосферное давление.
  • Tmin - Минимальная температура - минимум температуры воздуха на высоте 2 м над землей.
  • Tmax - Максимальная температура - максимум температуры воздуха на высоте 2 м над землей.
  • R - Количество осадков - Количество выпавших осадков за период времени, мм. При наведении курсора мыши на число - период времени, за который выпало указанное количество осадков.
  • R24 - Количество осадков - Количество выпавших осадков за 24 часа, мм.
  • S - Снежный покров - Высота снежного покрова, см. При наведении курсора мыши на число - состояние снежного покрова и степень покрытия местности в баллах.